STARLINK-1225, 45187

Orbit data source: Space-Track

STARLINK-1225, 45187 is a payload satellite owned by SpaceX/Seattle (US) in LEO that was launched on Mon, 17 Feb 2020 UTC via an FALCON 9 launch vehicle from the Air Force Eastern Test Range (AFETR). Payload-class satellites include a variety of spacecraft equipped with specific instruments for various scientific and technological missions. These include communications satellites like Starlink; space stations such as the ISS; scientific satellites like the Hubble; Earth observation satellites from companies like Planet Labs, Umbra, and HawkEye 360; GPS; miniature CubeSats for education and research; and military/defense satellites.

Loading next visibility...
Identifier
45187, 2020-012K
Orbit
LEO
Country
Flag of USUS
Related business
Manufacturer
SpaceX/Seattle
Mission
Partially operational Commercial Communications
Bus & Motor
STARLINK, Unknown motor
Mass
260 kg wet, ~248 kg dry
Launch date (UTC)
2020-02-17 (7 years ago)
Launch vehicle
FALCON 9
Launch site
Air Force Eastern Test Range (AFETR)
Object type
Payload
Rocket body
Debris
Shape & HBR
Box + 1 Pan, 10.1 m
Radar Cross Section
13.562 m², Large (>1 m²)

Expand to show TLE details & history
Last TLE update: 6 hours ago

TLE from 6 hours ago
0 STARLINK-1225
1 45187U 20012K   26253.99329120  .00051664  00000-0  11750-2 0  9991
2 45187  53.1523 252.0070 0001420  55.9524 304.1617 15.42506149363404
Epoch: 2026-09-10T23:50Z
TLE epoch observation values (Epoch: 2026-09-10T23:50:20.359Z)
Latitude
-0.00001°
Longitude
-95.60087°
Altitude
439.076 km
Speed
7.65 km/s
True Right ascension
16h 48m 01s
True Declination
0° 00' 00"
Sunlit
Object was in daylight at epoch
Visualization orbit readout
Latitude
Unknown
Longitude
Unknown
Altitude
Unknown
Speed
Unknown
Apparent Right ascension
Unknown
Apparent Declination
Unknown
Sunlit
N/A
Visualization observer readout
Local Sidereal Time
22:31:28
Azimuth
Unknown
Elevation
Unknown
Doppler factor
Unknown
Orbital elements
Apogee altitude
439.943 km
Perigee altitude
438.007 km
Semi-major axis
6,817.112 km
Eccentricity
0.00014
Inclination
53.1523°
RAAN
252.007°
Arg. of periapsis
55.9524°
True anomaly
304.14823°
Mean anomaly
304.1617°
Eccentric anomaly
304.15497°
Mean motion
3.85605 °/min
Orbital period
93.36 mins
BSTAR
0.001175
Loading maneuver chart data...
Computing Atmospheric mass density...
Loading historical data...
Loading historical data...
Loading historical data...
Loading historical data...
Loading historical data...
Loading historical data...
Loading historical data...

Documentation

Showing up to 5 results
|